Watford City, ND

10:22 AM CST on December 13, 2019 (GMT -0600)
Watford City

Weather History for KS25 - October, 2019

Change the Weather History Date:

Sunday, October 13, 2019

  Actual Average (KISN) Record (KISN)
Temperature  
Mean Temperature 36 °F -  
Max Temperature 50 °F 57 °F 84 °F (1964)
Min Temperature 23 °F 32 °F 6 °F (1909)
Degree Days  
Heating Degree Days 28    
Moisture  
Dew Point 22 °F    
Average Humidity 66    
Maximum Humidity 93    
Minimum Humidity 30    
Precipitation  
Precipitation 0.00 in - - ()
Sea Level Pressure  
Sea Level Pressure 29.88 in    
Wind  
Wind Speed 7 mph (WNW)    
Max Wind Speed 13 mph    
Max Gust Speed 16 mph    
Visibility 10 miles    
Events      
Averages and records for this station are not official NWS values.
T = Trace of Precipitation, MM = Missing Value Source: NWS Daily Summary

Daily Weather History Graph

Daily Weather History Graph

Search for Another Location

Airport or City:

Astronomy

Oct. 13, 2019 Rise Set
Actual Time 8:08 AM CDT 7:08 PM CDT
Civil Twilight 7:37 AM CDT 7:39 PM CDT
Nautical Twilight 7:02 AM CDT 8:15 PM CDT
Astronomical Twilight 6:26 AM CDT 8:51 PM CDT
Moon 7:36 PM CDT 7:39 AM CDT
Length of Visible Light 12h 02m
Length of Day
10h 59m
Full, 100% of the Moon is Illuminated
Oct 13
Full
Oct 13
Full
Oct 21
Last Quarter
Oct 27
New
Nov 4
First Quarter

Hourly Weather History & Observations

Time (CDT) Temp. Windchill Dew Point Humidity Pressure Visibility Wind Dir Wind Speed Gust Speed Precip Events Conditions
12:55 AM 33.8 °F 25.8 °F 26.6 °F 75% 29.85 in 10.0 mi NW 10.4 mph - N/A   Overcast
1:15 AM 33.8 °F 27.0 °F 26.6 °F 75% 29.85 in 10.0 mi NW 8.1 mph - N/A   Overcast
1:35 AM 33.8 °F 26.4 °F 26.6 °F 75% 29.85 in 10.0 mi WNW 9.2 mph - N/A   Overcast
1:55 AM 33.8 °F 25.8 °F 26.6 °F 75% 29.85 in 10.0 mi NW 10.4 mph - N/A   Overcast
2:15 AM 32.0 °F 23.6 °F 26.6 °F 80% 29.85 in 10.0 mi NW 10.4 mph - N/A   Overcast
2:35 AM 32.0 °F 24.2 °F 26.6 °F 80% 29.86 in 10.0 mi WNW 9.2 mph - N/A   Scattered Clouds
2:55 AM 32.0 °F 25.6 °F 26.6 °F 80% 29.86 in 10.0 mi WNW 6.9 mph - N/A   Clear
3:15 AM 30.2 °F 23.4 °F 26.6 °F 86% 29.86 in 10.0 mi WNW 6.9 mph - N/A   Clear
3:35 AM 30.2 °F 25.4 °F 24.8 °F 80% 29.87 in 10.0 mi WNW 4.6 mph - N/A   Partly Cloudy
3:55 AM 28.4 °F - 24.8 °F 86% 29.87 in 10.0 mi Calm Calm - N/A   Partly Cloudy
4:15 AM 28.4 °F - 23.0 °F 80% 29.87 in 10.0 mi Calm Calm - N/A   Partly Cloudy
4:35 AM 28.4 °F 22.2 °F 23.0 °F 80% 29.87 in 10.0 mi WNW 5.8 mph - N/A   Clear
4:55 AM 28.4 °F 23.3 °F 23.0 °F 80% 29.87 in 10.0 mi West 4.6 mph - N/A   Partly Cloudy
5:15 AM 26.6 °F 19.1 °F 23.0 °F 86% 29.87 in 10.0 mi WSW 6.9 mph - N/A   Clear
5:35 AM 26.6 °F 19.1 °F 23.0 °F 86% 29.88 in 10.0 mi SW 6.9 mph - N/A   Clear
5:55 AM 24.8 °F 16.9 °F 23.0 °F 93% 29.87 in 10.0 mi SSW 6.9 mph - N/A   Clear
6:15 AM 24.8 °F 17.9 °F 23.0 °F 93% 29.88 in 10.0 mi SSW 5.8 mph - N/A   Clear
6:35 AM 24.8 °F 16.9 °F 23.0 °F 93% 29.88 in 10.0 mi WSW 6.9 mph - N/A   Clear
6:55 AM 26.6 °F 20.0 °F 23.0 °F 86% 29.88 in 10.0 mi WSW 5.8 mph - N/A   Clear
7:15 AM 24.8 °F 19.1 °F 21.2 °F 86% 29.89 in 10.0 mi WSW 4.6 mph - N/A   Clear
7:35 AM 24.8 °F 19.1 °F 21.2 °F 86% 29.89 in 10.0 mi SSW 4.6 mph - N/A   Clear
7:55 AM 24.8 °F 19.1 °F 21.2 °F 86% 29.89 in 10.0 mi SW 4.6 mph - N/A   Clear
8:15 AM 23.0 °F 14.7 °F 21.2 °F 93% 29.90 in 10.0 mi SW 6.9 mph - N/A   Clear
8:35 AM 23.0 °F 15.8 °F 21.2 °F 93% 29.90 in 10.0 mi WSW 5.8 mph - N/A   Clear
8:55 AM 24.8 °F 17.9 °F 21.2 °F 86% 29.90 in 10.0 mi SW 5.8 mph - N/A   Clear
9:15 AM 26.6 °F 18.2 °F 23.0 °F 86% 29.90 in 10.0 mi WSW 8.1 mph - N/A   Clear
9:35 AM 28.4 °F 19.7 °F 23.0 °F 80% 29.90 in 10.0 mi West 9.2 mph - N/A   Clear
9:55 AM 30.2 °F 22.6 °F 23.0 °F 75% 29.91 in 10.0 mi West 8.1 mph - N/A   Clear
10:15 AM 30.2 °F 24.3 °F 23.0 °F 75% 29.92 in 10.0 mi West 5.8 mph - N/A   Clear
10:35 AM 33.8 °F 27.0 °F 23.0 °F 65% 29.92 in 10.0 mi WNW 8.1 mph - N/A   Clear
10:55 AM 33.8 °F 25.3 °F 23.0 °F 65% 29.91 in 10.0 mi WNW 11.5 mph - N/A   Clear
11:15 AM 35.6 °F 27.5 °F 23.0 °F 60% 29.90 in 10.0 mi WNW 11.5 mph - N/A   Clear
11:35 AM 37.4 °F 29.3 °F 23.0 °F 56% 29.90 in 10.0 mi NW 12.7 mph - N/A   Clear
11:55 AM 39.2 °F 32.5 °F 23.0 °F 52% 29.91 in 10.0 mi NW 10.4 mph - N/A   Clear
12:15 PM 41.0 °F 35.2 °F 21.2 °F 45% 29.91 in 10.0 mi NW 9.2 mph - N/A   Clear
12:35 PM 41.0 °F 34.3 °F 21.2 °F 45% 29.90 in 10.0 mi NW 11.5 mph - N/A   Clear
12:55 PM 42.8 °F 37.5 °F 21.2 °F 42% 29.90 in 10.0 mi NW 9.2 mph 15.0 mph N/A   Clear
1:15 PM 42.8 °F 36.6 °F 19.4 °F 39% 29.90 in 10.0 mi NNW 11.5 mph - N/A   Clear
1:35 PM 44.6 °F 38.8 °F 19.4 °F 37% 29.90 in 10.0 mi NNW 11.5 mph - N/A   Clear
1:55 PM 44.6 °F 40.2 °F 21.2 °F 39% 29.90 in 10.0 mi NNW 8.1 mph - N/A   Clear
2:15 PM 44.6 °F 38.8 °F 19.4 °F 37% 29.89 in 10.0 mi NNW 11.5 mph - N/A   Clear
2:35 PM 46.4 °F 41.5 °F 21.2 °F 37% 29.89 in 10.0 mi NW 10.4 mph - N/A   Clear
2:55 PM 46.4 °F 41.9 °F 21.2 °F 37% 29.89 in 10.0 mi WNW 9.2 mph - N/A   Clear
3:15 PM 48.2 °F - 19.4 °F 32% 29.88 in 10.0 mi NW 8.1 mph - N/A   Clear
3:35 PM 48.2 °F - 19.4 °F 32% 29.88 in 10.0 mi WNW 8.1 mph 16.1 mph N/A   Clear
3:55 PM 48.2 °F - 19.4 °F 32% 29.88 in 10.0 mi West 9.2 mph 16.1 mph N/A   Clear
4:15 PM 48.2 °F - 19.4 °F 32% 29.88 in 10.0 mi NW 9.2 mph - N/A   Clear
4:35 PM 48.2 °F - 19.4 °F 32% 29.87 in 10.0 mi WNW 9.2 mph - N/A   Clear
4:55 PM 50.0 °F - 19.4 °F 30% 29.87 in 10.0 mi WNW 11.5 mph - N/A   Clear
5:15 PM 48.2 °F - 19.4 °F 32% 29.87 in 10.0 mi WNW 9.2 mph - N/A   Clear
5:35 PM 48.2 °F - 19.4 °F 32% 29.87 in 10.0 mi WNW 6.9 mph - N/A   Clear
5:55 PM 48.2 °F - 19.4 °F 32% 29.87 in 10.0 mi West 5.8 mph - N/A   Clear
6:15 PM 46.4 °F 44.3 °F 19.4 °F 34% 29.87 in 10.0 mi NW 4.6 mph - N/A   Clear
6:35 PM 44.6 °F 43.1 °F 19.4 °F 37% 29.87 in 10.0 mi WNW 3.5 mph - N/A   Clear
6:55 PM 42.8 °F - 19.4 °F 39% 29.87 in 10.0 mi Calm Calm - N/A   Clear
7:15 PM 37.4 °F - 19.4 °F 48% 29.87 in 10.0 mi Calm Calm - N/A   Clear
7:35 PM 32.0 °F - 21.2 °F 64% 29.87 in 10.0 mi Calm Calm - N/A   Clear
7:55 PM 32.0 °F - 21.2 °F 64% 29.87 in 10.0 mi Calm Calm - N/A   Clear
8:15 PM 30.2 °F - 19.4 °F 64% 29.87 in 9.0 mi Calm Calm - N/A   Clear
8:35 PM 30.2 °F - 19.4 °F 64% 29.87 in 10.0 mi Calm Calm - N/A   Clear
8:55 PM 30.2 °F - 23.0 °F 75% 29.87 in 10.0 mi Calm Calm - N/A   Clear
9:15 PM 28.4 °F - 21.2 °F 74% 29.87 in 10.0 mi Calm Calm - N/A   Clear
9:35 PM 28.4 °F - 21.2 °F 74% 29.87 in 10.0 mi Calm Calm - N/A   Clear
9:55 PM 26.6 °F - 23.0 °F 86% 29.87 in 10.0 mi Calm Calm - N/A   Clear
10:15 PM 26.6 °F - 21.2 °F 80% 29.87 in 10.0 mi Calm Calm - N/A   Clear
10:35 PM 26.6 °F - 23.0 °F 86% 29.87 in 10.0 mi Calm Calm - N/A   Clear
10:55 PM 24.8 °F - 21.2 °F 86% 29.87 in 10.0 mi Calm Calm - N/A   Clear
11:15 PM 24.8 °F - 21.2 °F 86% 29.87 in 10.0 mi Calm Calm - N/A   Clear
11:35 PM 23.0 °F - 19.4 °F 86% 29.87 in 10.0 mi Calm Calm - N/A   Clear
11:55 PM 23.0 °F - 21.2 °F 93% 29.87 in 10.0 mi Calm Calm - N/A   Clear